STARLINK-35951 (66619 NORAD) Tracking and Keplerian Element Data

This shows tracking and keplerian element data for the satellite.

Feedback or suggestion? Click here.




ElementValue
Catalog66619
NameSTARLINK-35951
Epoch Orbit532
Epoch Day353.9482147
Epoch Year2025
RAAN152.7597
Inclination53.1623
Eccentricity0.0002872
Argument of Perigee23.3692
Mean Anonmoly336.7446
Mean Motion15.46545275
Decay Rate-0.0039068
L11 66619U 25271C 25353.94821470 -.00390680 00000+0 -81194-2 0 9990
L22 66619 53.1623 152.7597 0002872 23.3692 336.7446 15.46545275 5327



Live tracking and technical data element details for STARLINK-35951 (NORAD 66619). STARLINK-35951 can be tracked NOW for your location showing map with azimuth and elevation plus other details from your city location.







IsCatalogInMostPopularTable: catalog: 66619, numindb: 8
Update: records affected: 1



GetName: 66619 STARLINK-35951

Hit Count: updated at: Mon, 09 Feb 2026 08:17:15 GMT